Home   Weather   Malakal   Past weeks
Flag for South Sudan

Past Weather in Malakal, South Sudan — Yesterday and Last 2 Weeks

Now
91 °F

Clear.


Feels Like: 96 °F
Forecast: 88 / 72 °F
Wind: 12 mph from Southwest

Location: Khartoum Airport

Current Time: Sep 20, 2019 at 11:41:38 pm

Latest Report: Sep 20, 2019 at 11:00 pm


Visibility: 10 mi

Pressure: 29.77 "Hg

Humidity: 46%

Dew Point: 68 °F

Location of MalakalLocation

Past Weather in Malakal — Graph

°F

Malakal Temperature Yesterday

Maximum temperature yesterday: 100 °F (at 3:00 pm)
Minimum temperature yesterday: 82 °F (at 1:30 am)
Average temperature yesterday: 91 °F

High & Low Weather Summary for the Past Weeks

 TemperatureHumidityPressure
High104 °F (Sep 17, 3:30 pm)94% (Sep 12, 4:00 am)29.98 "Hg (Sep 12, 4:00 am)
Low72 °F (Sep 12, 4:00 am)14% (Sep 13, 5:00 pm)29.71 "Hg (Sep 17, 5:30 pm)
Average91 °F44%29.84 "Hg
* Reported Sep 5 10:00 pm — Sep 20 10:30 pm, Malakal. Weather by CustomWeather, © 2019

Note: Actual official high and low records may vary slightly from our data, if they occured in-between our weather recording intervals... More about our weather records

Advertising

Malakal Weather History for the Previous 24 Hours

Scroll right to see more
 ConditionsComfort  
Time TempWeatherWind HumidityBarometerVisibility
10:30 pm
Fri, Sep 20
93 °FClear.15 mph44%29.77 "Hg10 mi
10:00 pm93 °FClear.15 mph41%29.77 "Hg10 mi
9:30 pm95 °FClear.14 mph39%29.77 "Hg10 mi
9:00 pm97 °FClear.12 mph34%29.77 "Hg10 mi
8:30 pm97 °FClear.10 mph30%29.74 "Hg10 mi
8:00 pm97 °FClear.12 mph30%29.74 "Hg10 mi
7:30 pm97 °FClear.12 mph30%29.74 "Hg10 mi
7:00 pm99 °FClear.9 mph27%29.74 "Hg10 mi
6:30 pm100 °FSunny.9 mph24%29.71 "Hg10 mi
6:00 pm104 °FSunny.9 mph24%29.71 "Hg10 mi
5:30 pm102 °FSunny.7 mph23%29.71 "Hg10 mi
5:00 pm104 °FSunny.5 mph20%29.71 "Hg10 mi
4:30 pm104 °FSunny.3 mph21%29.71 "Hg10 mi
4:00 pm104 °FSunny.7 mph23%29.71 "Hg10 mi
3:30 pm104 °FSunny.5 mph23%29.71 "Hg10 mi
3:00 pm104 °FSunny.7 mph23%29.74 "Hg10 mi
2:30 pm102 °FSunny.8 mph24%29.74 "Hg10 mi
2:00 pm102 °FSunny.10 mph24%29.74 "Hg10 mi
1:30 pm102 °FSunny.10 mph26%29.77 "Hg10 mi
1:00 pm100 °FSunny.13 mph25%29.80 "Hg10 mi
12:30 pm100 °FSunny.12 mph27%29.80 "Hg10 mi
12:00 pm99 °FSunny.12 mph29%29.83 "Hg10 mi
11:30 am99 °FSunny.12 mph29%29.83 "Hg10 mi
11:00 am97 °FSunny.10 mph30%29.83 "Hg10 mi
10:30 am95 °FSunny.12 mph34%29.83 "Hg10 mi
10:00 am93 °FSunny.8 mph36%29.83 "Hg10 mi
9:30 am93 °FSunny.9 mph39%29.83 "Hg10 mi
9:00 am90 °FSunny.8 mph43%29.83 "Hg10 mi
8:30 am90 °FSunny.9 mph43%29.83 "Hg10 mi
8:00 am88 °FSunny.7 mph49%29.83 "Hg10 mi
7:30 am86 °FSunny.6 mph52%29.77 "Hg10 mi
7:00 am86 °FSunny.5 mph52%29.80 "Hg10 mi
6:30 am86 °FClear.3 mph49%29.77 "Hg10 mi
6:00 am86 °FClear.5 mph49%29.77 "Hg10 mi
5:30 am88 °FClear.5 mph49%29.77 "Hg10 mi
5:00 am88 °FClear.5 mph46%29.77 "Hg10 mi
4:30 am88 °FClear.5 mph49%29.77 "Hg10 mi
4:00 am90 °FClear.3 mph43%29.74 "Hg10 mi
3:30 am90 °FClear.3 mph46%29.74 "Hg10 mi
3:00 am90 °FClear.3 mph46%29.77 "Hg10 mi
2:30 am90 °FClear.5 mph46%29.77 "Hg10 mi
2:00 am90 °FClear.5 mph43%29.77 "Hg10 mi
1:30 am91 °FClear.7 mph41%29.77 "Hg10 mi
1:00 am91 °FClear.7 mph38%29.77 "Hg10 mi
12:30 am91 °FClear.6 mph38%29.80 "Hg10 mi
12:00 am91 °FClear.5 mph38%29.83 "Hg10 mi
11:30 pm
Thu, Sep 19
91 °FClear.6 mph41%29.83 "Hg10 mi
11:00 pm93 °FClear.6 mph36%29.83 "Hg10 mi
Weather by CustomWeather, © 2019

See weather overview